Regional Weather Roundup
Issued by NWS Goodland, KS

Home | Current Version | Previous Version | Text Only | Print | Product List | Glossary Off
Versions: 1 2 3 4 5 6 7 8 9 10 11 12 13 14 15 16 17 18 19 20 21 22 23 24 25 26 27 28 29 30 31 32 33 34 35 36 37 38 39 40 41 42 43 44 45 46 47 48 49 50

000
ASUS43 KGLD 042259
RWRGLD

GOODLAND FORECAST AREA HOURLY WEATHER ROUNDUP
NATIONAL WEATHER SERVICE GOODLAND KS
500 PM MDT SAT JUL 04 2015

...OFFICIAL OBSERVATIONS...

CITY           SKY/WX    TMP DP  RH WIND       PRES   REMARKS
GOODLAND KS    MOSUNNY   92  58  31 S21       29.88F
HILL CITY KS   MOSUNNY   93  62  35 S17       29.88F
IMPERIAL NEB   MOSUNNY   96  55  25 S18G28    29.84F
MCCOOK NEB     MOSUNNY   94  59  31 S16G24    29.84F
AKRON CO       SUNNY     89  53  29 SE14      29.89F
BURLINGTON CO  SUNNY     93  51  23 S12G21    29.91F
LIMON CO       MOSUNNY   85  58  39 SE9       29.97F
$$

...UNOFFICIAL OBSERVATIONS...

CITY           SKY/WX    TMP DP  RH WIND       PRES   REMARKS
COLBY KS       MOSUNNY   93  63  36 SE25      29.90F
GOVE KS          N/A     94  32  11 MISG        N/A
NORTON KS      MOSUNNY   93  55  27 SE17G25   29.87F
SHARON SPRINGS   N/A     94  64  36 SE18G29     N/A
KIT CARSON CO    N/A     93  55  27 MISG        N/A
YUMA CO          N/A     91  59  33 S8G18       N/A
$$



USA.gov is the U.S. government's official web portal to all federal, state and local government web resources and services.